Wind_Speed
47 46 45 44 44 43 42 42 43 43 42 42 42 42 41 41 41 42 43 44 45 45 45 46 47 47 48 49 50 50 51 52 52 53 54 54 55 56 57 57 58 59
48 48 47 46 46 44 43 44 44 45 44 44 44 44 43 43 43 43 45 46 47 47 47 48 49 49 50 51 52 52 53 54 54 55 55 56 56 57 58 59 59 59
49 49 49 49 48 46 45 46 46 46 45 45 46 46 45 45 45 46 47 47 48 49 50 51 51 51 52 53 53 54 55 55 56 56 56 57 58 58 59 59 60 60
50 50 51 51 50 49 48 48 47 47 46 47 48 48 47 47 48 49 49 49 50 51 52 53 53 53 54 55 55 56 56 57 57 57 57 58 59 59 60 60 60 59
51 51 52 52 52 51 51 51 50 49 48 49 50 50 49 50 50 51 51 52 52 53 54 55 55 55 56 56 57 57 58 58 58 58 58 59 59 60 60 60 59 58
52 53 53 54 54 54 53 53 52 51 51 51 52 51 51 52 53 54 54 54 55 55 56 57 57 58 58 58 58 58 58 58 58 59 59 60 60 60 59 59 58 57
54 54 55 55 55 55 55 54 53 52 52 53 53 52 53 54 55 56 57 56 56 56 57 59 59 59 59 59 59 59 59 59 59 59 60 60 60 59 58 58 57 56
55 56 56 57 56 56 56 55 54 54 54 54 54 54 55 56 57 58 58 58 58 57 58 60 60 60 60 60 60 59 59 60 60 60 60 59 59 58 57 56 56 56
57 57 57 57 58 57 57 57 56 56 56 56 56 56 57 58 59 59 59 59 59 58 59 60 61 60 61 60 60 60 60 60 60 59 59 58 57 56 56 56 56 56
58 58 58 58 58 58 58 58 58 57 58 58 58 58 58 59 59 59 59 59 59 59 60 61 61 60 61 60 60 60 60 59 59 58 57 56 55 55 56 56 56 56
59 59 59 59 59 59 59 59 58 58 59 59 59 59 59 59 59 60 60 59 60 60 60 61 61 61 61 60 60 60 59 58 57 56 55 55 55 56 56 56 56 57
60 60 60 60 60 60 60 60 59 59 59 59 60 60 60 59 59 60 60 60 60 60 60 60 61 61 60 60 59 58 57 56 55 55 55 55 56 56 56 57 58 59
60 61 60 60 60 60 60 60 59 59 59 59 60 60 60 60 59 60 60 60 61 61 61 61 61 60 59 57 56 56 55 55 55 55 56 56 57 57 57 58 59 60
61 61 61 60 60 60 59 59 59 59 59 59 59 59 60 60 60 60 61 61 61 61 60 60 59 57 56 56 55 55 56 56 56 57 57 57 57 58 58 59 60 60
61 61 60 60 60 59 59 59 59 59 59 59 59 59 60 60 60 60 61 61 60 59 59 58 57 56 56 56 57 57 57 58 58 58 58 58 58 59 59 60 60 59
61 61 61 60 60 60 59 59 59 59 59 59 59 59 59 59 60 60 59 59 59 58 57 56 56 57 57 58 58 58 59 59 58 58 58 58 59 60 60 59 59 59
61 61 61 61 61 61 60 60 59 59 59 59 59 59 59 59 59 58 57 57 56 56 56 56 56 57 58 59 59 59 59 58 58 58 58 59 59 59 59 58 58 59
61 61 61 61 62 62 62 61 61 60 60 59 59 59 58 58 58 57 56 56 55 55 56 56 57 58 59 59 59 59 58 58 58 59 59 59 59 58 58 58 59 59
62 61 61 61 62 62 62 62 62 62 61 60 59 59 58 58 57 57 57 57 57 57 58 58 59 59 59 59 58 58 58 59 59 59 59 58 58 57 58 58 59 59
61 61 61 61 62 62 62 62 62 62 62 61 60 59 58 58 58 58 58 58 59 59 60 60 60 59 58 58 58 59 59 60 60 59 58 57 57 57 58 58 59 59
60 60 60 60 61 61 61 61 62 61 61 61 60 60 59 59 59 59 60 60 60 60 60 59 58 58 58 58 59 60 60 60 58 57 56 56 56 57 58 59 59 60
58 59 59 59 59 59 59 59 60 60 60 60 60 60 60 60 60 60 60 60 59 59 58 58 58 59 60 61 61 60 59 57 55 55 55 56 57 57 58 59 60 61
57 57 57 58 57 57 57 57 57 58 58 59 59 59 59 59 59 59 59 58 58 58 58 59 60 61 62 61 59 57 55 54 54 54 55 56 57 58 59 60 61 63
58 57 57 56 56 56 56 56 56 56 57 58 58 59 59 59 59 59 59 59 59 60 61 61 62 61 59 57 54 53 53 53 54 54 55 56 58 59 60 62 63 64
59 59 58 58 57 57 57 57 57 57 58 58 59 59 59 60 60 60 60 61 61 61 61 60 58 56 54 53 52 52 52 53 54 55 56 58 59 61 62 63 64 65
58 58 58 58 57 57 57 58 58 59 59 59 60 60 60 60 60 61 61 60 60 59 57 55 53 52 51 51 51 52 53 54 55 57 58 60 61 62 63 64 66 66
Wind_Direction
259 261 261 262 263 265 266 267 267 267 267 268 269 269 271 272 274 276 278 280 281 282 283 284 285 286 286 287 288 289 290 291 292 293 294 294 295 295 296 296 297 297
261 262 263 263 264 266 266 266 266 267 267 268 269 270 271 273 274 276 277 279 281 282 283 284 285 286 287 288 289 289 290 291 292 293 293 293 294 294 295 296 296 297
262 262 263 264 265 266 266 266 266 267 267 268 269 270 271 272 274 275 277 278 280 282 283 284 284 286 287 287 288 289 290 290 291 292 292 293 293 294 294 295 296 296
263 263 264 264 265 266 266 267 268 268 269 269 269 270 271 272 274 275 277 279 280 281 282 283 284 285 286 287 287 288 288 289 290 291 291 292 292 293 294 294 295 296
264 264 264 265 265 266 267 268 269 270 270 270 270 271 272 273 274 275 276 278 279 280 281 283 284 285 285 286 287 287 288 289 289 290 291 291 292 293 293 294 295 296
264 264 265 265 266 266 267 268 269 271 271 271 272 272 273 273 274 274 275 276 277 279 281 282 283 283 284 285 286 286 287 288 289 290 290 291 291 292 293 294 295 296
264 264 265 265 266 267 268 269 270 271 271 271 272 272 272 272 273 273 274 275 277 278 280 281 282 283 284 284 285 286 287 288 288 289 290 290 291 292 293 294 295 295
263 264 265 266 267 267 268 269 269 269 270 270 271 271 271 271 272 273 274 276 277 278 279 280 281 282 283 284 285 286 287 287 288 289 289 290 291 291 292 293 294 295
262 263 264 265 266 267 267 268 268 269 269 270 270 270 271 272 273 274 275 276 278 278 279 279 280 282 283 284 285 286 287 287 288 288 289 289 290 291 292 293 294 295
262 263 263 264 265 266 267 268 268 269 269 270 270 271 271 272 273 274 275 276 277 278 278 279 280 281 282 284 285 285 286 286 287 287 288 289 289 290 291 293 294 295
262 263 263 263 264 265 266 267 268 268 269 269 270 271 272 272 273 274 275 276 276 276 277 279 280 281 282 283 283 284 284 285 286 286 287 288 289 290 291 293 294 294
262 263 263 264 264 265 266 266 267 268 268 269 270 271 271 272 272 273 274 274 275 276 277 278 280 280 281 282 282 283 283 284 285 285 287 288 289 290 292 293 293 294
263 263 263 264 265 265 266 267 267 268 268 269 269 270 271 271 271 272 273 274 275 276 277 278 279 279 280 281 281 282 282 283 285 286 287 288 290 291 292 292 293 294
262 263 263 264 264 265 266 266 267 267 268 268 269 270 270 271 272 272 273 274 275 276 277 277 278 279 279 280 281 282 283 284 285 286 288 289 290 291 292 292 293 294
261 262 262 263 264 264 265 265 266 266 267 268 268 269 270 271 273 273 274 275 275 276 276 277 277 278 279 280 281 283 284 285 286 287 289 290 291 291 292 292 293 294
261 262 262 263 263 264 264 265 265 266 266 267 268 269 270 271 272 273 273 274 274 275 275 276 277 278 280 281 282 283 284 285 287 288 289 290 291 291 291 292 293 295
261 262 262 263 263 264 264 265 265 266 267 267 268 269 270 270 271 272 272 273 273 274 275 276 278 279 280 282 283 284 285 287 288 289 290 290 290 291 292 293 294 296
261 262 262 263 263 264 264 265 266 266 267 268 268 268 269 270 270 271 271 272 273 274 275 277 279 280 282 283 284 285 287 288 289 289 290 290 290 291 292 293 295 297
261 262 262 263 263 264 264 265 266 266 267 268 268 269 269 269 270 270 271 272 274 276 278 280 281 282 283 284 285 287 288 288 289 289 289 289 290 291 293 294 296 299
262 262 262 263 263 264 264 265 266 266 267 268 268 269 269 270 271 272 274 276 278 279 280 281 282 283 284 286 287 288 288 288 288 288 289 290 291 292 294 296 298 300
262 262 263 264 264 265 265 266 266 267 267 268 268 269 270 272 274 275 277 279 280 280 281 282 283 284 286 287 287 287 287 287 287 288 289 291 292 293 295 297 299 301
262 263 264 265 265 266 266 267 267 268 268 269 270 271 273 275 276 278 279 279 280 281 282 283 285 285 286 286 286 285 285 286 288 289 290 292 294 295 297 299 300 300
262 263 264 265 266 266 267 268 268 269 270 271 272 274 275 276 277 278 279 280 281 282 283 284 285 285 284 284 284 285 286 287 289 290 292 294 296 297 298 299 300 300
262 263 264 265 266 267 268 268 269 270 271 273 274 274 275 276 277 278 279 280 281 282 283 283 283 283 283 284 285 286 288 290 291 293 295 296 297 298 298 299 299 299
263 264 264 265 266 267 268 269 270 271 272 273 274 275 276 276 277 278 279 280 281 282 282 283 283 283 284 286 287 289 291 293 295 296 296 297 297 297 297 298 298 298
265 266 266 267 267 268 269 270 271 272 273 274 275 276 277 278 279 280 280 281 281 282 282 283 284 285 287 289 291 293 294 295 296 296 296 296 296 296 296 296 297 297
Height
5834 5834 5834 5834 5834 5834 5834 5833 5832 5832 5832 5832 5832 5831 5831 5830 5830 5828 5826 5825 5824 5823 5822 5821 5819 5818 5816 5815 5813 5811 5810 5808 5806 5804 5802 5800 5798 5796 5794 5791 5789 5787
5830 5829 5830 5830 5830 5830 5830 5829 5828 5827 5828 5828 5827 5827 5827 5826 5825 5824 5822 5821 5820 5818 5817 5816 5814 5813 5811 5810 5808 5806 5804 5803 5801 5799 5797 5795 5793 5790 5788 5786 5783 5781
5825 5825 5825 5825 5825 5826 5825 5824 5824 5824 5824 5824 5823 5823 5822 5821 5820 5819 5817 5817 5815 5814 5812 5810 5809 5808 5806 5805 5803 5801 5799 5797 5796 5794 5791 5789 5787 5784 5782 5780 5777 5775
5820 5820 5820 5820 5820 5821 5820 5819 5819 5820 5820 5819 5818 5818 5817 5816 5815 5814 5812 5812 5810 5809 5807 5805 5804 5803 5801 5799 5798 5796 5794 5792 5790 5788 5786 5783 5781 5779 5776 5774 5772 5770
5815 5815 5815 5815 5815 5815 5815 5815 5815 5815 5815 5814 5813 5812 5812 5811 5809 5808 5807 5806 5805 5803 5801 5799 5798 5797 5795 5794 5792 5790 5788 5786 5784 5782 5780 5777 5775 5773 5771 5768 5766 5764
5810 5810 5809 5809 5810 5810 5810 5810 5810 5810 5810 5808 5807 5807 5806 5805 5803 5802 5802 5801 5799 5798 5796 5793 5792 5791 5789 5788 5786 5784 5782 5780 5778 5776 5774 5771 5769 5767 5765 5763 5761 5759
5804 5804 5804 5804 5804 5805 5805 5805 5805 5805 5804 5802 5801 5801 5800 5799 5797 5796 5795 5795 5794 5793 5790 5788 5786 5785 5783 5782 5780 5778 5777 5774 5772 5770 5768 5766 5764 5762 5759 5757 5755 5753
5798 5798 5798 5799 5799 5799 5799 5799 5799 5798 5797 5796 5796 5795 5794 5792 5791 5790 5789 5789 5788 5787 5785 5782 5780 5779 5777 5776 5774 5772 5771 5768 5766 5764 5762 5760 5758 5756 5754 5751 5749 5747
5792 5792 5792 5792 5792 5792 5792 5792 5792 5792 5791 5790 5790 5789 5787 5786 5785 5784 5783 5782 5782 5781 5779 5776 5775 5773 5771 5770 5768 5766 5764 5762 5760 5758 5756 5754 5752 5750 5748 5745 5743 5741
5786 5786 5786 5786 5786 5786 5786 5785 5785 5785 5784 5784 5783 5782 5781 5780 5779 5778 5777 5776 5775 5774 5772 5770 5769 5767 5765 5764 5762 5760 5758 5756 5754 5752 5750 5748 5746 5744 5742 5740 5738 5736
5780 5780 5779 5779 5779 5779 5779 5778 5779 5778 5777 5777 5776 5776 5774 5773 5772 5771 5770 5770 5769 5767 5765 5764 5762 5760 5759 5757 5755 5753 5752 5750 5748 5746 5744 5742 5740 5738 5736 5734 5732 5730
5774 5773 5773 5773 5773 5772 5772 5772 5772 5772 5771 5770 5769 5768 5767 5767 5766 5764 5763 5762 5761 5760 5759 5757 5755 5753 5752 5750 5748 5747 5745 5743 5741 5739 5737 5736 5734 5732 5730 5728 5726 5724
5767 5767 5767 5767 5766 5766 5766 5765 5765 5765 5764 5763 5762 5761 5760 5760 5759 5758 5756 5755 5754 5753 5751 5750 5748 5746 5745 5743 5742 5740 5738 5737 5735 5733 5731 5730 5728 5726 5724 5722 5720 5718
5761 5761 5760 5760 5760 5759 5759 5759 5758 5758 5757 5756 5755 5754 5753 5752 5752 5751 5749 5748 5747 5745 5743 5742 5741 5739 5738 5736 5735 5733 5732 5730 5729 5727 5725 5724 5722 5720 5718 5716 5714 5711
5754 5754 5754 5753 5753 5752 5752 5751 5751 5750 5750 5749 5748 5747 5746 5745 5744 5743 5741 5740 5739 5738 5736 5735 5733 5732 5730 5729 5728 5726 5725 5724 5722 5721 5719 5718 5716 5714 5712 5710 5707 5705
5747 5747 5746 5746 5746 5745 5745 5744 5743 5743 5742 5741 5740 5740 5739 5738 5736 5735 5734 5733 5731 5731 5729 5728 5726 5724 5723 5722 5721 5720 5718 5717 5716 5714 5713 5711 5709 5707 5705 5703 5700 5698
5739 5739 5739 5739 5739 5738 5738 5737 5736 5736 5735 5734 5733 5733 5731 5730 5729 5728 5727 5726 5724 5724 5722 5720 5719 5718 5716 5715 5714 5713 5712 5711 5709 5708 5706 5705 5703 5701 5698 5696 5694 5692
5732 5732 5732 5732 5731 5731 5730 5730 5729 5729 5728 5727 5726 5725 5724 5723 5722 5721 5720 5719 5718 5717 5715 5714 5713 5711 5710 5709 5708 5707 5705 5704 5703 5701 5700 5698 5696 5694 5691 5689 5687 5685
5724 5725 5724 5724 5724 5724 5723 5723 5722 5722 5721 5720 5719 5718 5717 5716 5715 5714 5713 5712 5711 5710 5709 5708 5707 5705 5704 5703 5702 5700 5699 5697 5696 5694 5692 5691 5689 5687 5685 5683 5681 5679
5717 5717 5717 5716 5717 5716 5716 5716 5715 5714 5714 5713 5712 5711 5710 5709 5708 5708 5707 5706 5705 5704 5703 5702 5700 5699 5698 5696 5695 5694 5692 5690 5689 5687 5685 5684 5682 5680 5678 5676 5674 5672
5710 5710 5710 5710 5709 5709 5709 5709 5708 5707 5707 5706 5705 5704 5703 5703 5702 5701 5701 5700 5699 5698 5696 5695 5694 5692 5691 5690 5688 5687 5685 5683 5682 5680 5679 5677 5675 5673 5671 5669 5667 5665
5704 5704 5704 5703 5703 5702 5702 5702 5701 5700 5700 5699 5698 5698 5697 5696 5696 5695 5694 5693 5692 5691 5690 5689 5687 5686 5684 5683 5681 5680 5678 5677 5675 5674 5672 5670 5668 5666 5664 5662 5661 5658
5697 5697 5697 5696 5696 5695 5695 5694 5694 5693 5692 5692 5691 5691 5690 5690 5689 5688 5687 5686 5685 5684 5683 5682 5680 5679 5677 5676 5674 5673 5671 5670 5669 5667 5665 5663 5661 5659 5657 5655 5653 5651
5690 5690 5690 5690 5689 5689 5688 5688 5687 5686 5686 5685 5685 5684 5684 5683 5682 5681 5681 5680 5679 5678 5677 5675 5673 5672 5670 5669 5667 5666 5665 5663 5662 5660 5658 5656 5654 5652 5650 5648 5646 5644
5682 5683 5683 5683 5682 5682 5682 5681 5681 5680 5680 5679 5679 5678 5677 5677 5676 5675 5674 5673 5672 5671 5669 5668 5666 5664 5663 5662 5660 5659 5658 5656 5654 5652 5651 5649 5647 5645 5643 5642 5639 5637
5675 5675 5675 5675 5675 5675 5675 5675 5675 5674 5673 5673 5672 5672 5671 5670 5669 5668 5667 5665 5664 5663 5662 5661 5659 5657 5656 5655 5653 5652 5650 5648 5647 5646 5644 5642 5640 5639 5637 5635 5633 5630